Zurück zum Katalog

STARLINK-4053

AktivKommunikationVLEO
NORAD 53536·PAYLOAD·🇺🇸 United States

Gestartet Aug 19, 2022 von Cape Canaveral Space Force Station

Loading…

Nächste Überflüge (nächste 24 Stunden)

TLE

AktuellSource: CelesTrak SupGP

Epoche: Sep 15, 2026, 02:59 UTC

1 53536C 22101K   26258.12479167 -.00008074  00000+0 -25960-3 0  2581
2 53536  53.1583 280.8034 0001265  88.6391 286.5277 15.31709653    11

Verfolge STARLINK-4053 in Echtzeit mit AllMySat

Download on the App Store